Tracking 19193 objects as of 22-Jun-2018
HD Live streaming from Space Station
objects crossing your sky now

SL-8 R/B

Track SL-8 R/B now!
10-day predictions


NORAD ID: 24306
Int'l Code: 1996-052C
Perigee: 968.9 km
Apogee: 1,009.3 km
Inclination: 82.9 °
Period: 104.7 minutes
Semi major axis: 7360 km
RCS: 5.014 m2 (large)
Launch date: September 5, 1996
Source: Commonwealth of Independent States (former USSR) (CIS)
Launch site: PLESETSK MISSILE AND SPACE COMPLEX (PKMTR)

Note: This is a ROCKET BODY
aabbcc
Your satellite tracking list
Your tracking list is empty




NASA's NSSDC Master Catalog

Two Line Element Set (TLE):
1 24306U 96052C   18172.23490794 +.00000037 +00000-0 +22320-4 0  9997
2 24306 082.9361 066.8791 0027460 071.4201 288.9935 13.74918627093203
Source of the keplerian elements: AFSPC